Year,Month,Day,Hour,Minute,Value (Times are PST for windspeed in km/hr)
2011,11,25,00,00,5.10
2011,11,25,00,01,8.80
2011,11,25,00,02,7.50
2011,11,25,00,03,8.70
2011,11,25,00,04,6.10
2011,11,25,00,05,6.60
2011,11,25,00,06,5.80
2011,11,25,00,07,7.10
2011,11,25,00,08,5.00
2011,11,25,00,09,5.90
2011,11,25,00,10,4.80
2011,11,25,00,11,7.50
2011,11,25,00,12,4.50
2011,11,25,00,13,6.10
2011,11,25,00,14,7.60
2011,11,25,00,15,7.70
2011,11,25,00,16,9.00
2011,11,25,00,17,11.20
2011,11,25,00,18,14.80
2011,11,25,00,19,11.40
2011,11,25,00,20,6.50
2011,11,25,00,21,10.20
2011,11,25,00,22,12.30
2011,11,25,00,23,15.30
2011,11,25,00,24,14.60
2011,11,25,00,25,16.90
2011,11,25,00,26,12.10
2011,11,25,00,27,16.30
2011,11,25,00,28,17.00
2011,11,25,00,29,13.60
2011,11,25,00,30,10.30
2011,11,25,00,31,14.00
2011,11,25,00,32,17.90
2011,11,25,00,33,14.00
2011,11,25,00,34,7.40
2011,11,25,00,35,10.60
2011,11,25,00,36,5.60
2011,11,25,00,37,6.60
2011,11,25,00,38,8.00
2011,11,25,00,39,5.30
2011,11,25,00,40,4.70
2011,11,25,00,41,5.30
2011,11,25,00,42,3.50
2011,11,25,00,43,8.10
2011,11,25,00,44,9.50
2011,11,25,00,45,8.40
2011,11,25,00,46,6.00
2011,11,25,00,47,2.60
2011,11,25,00,48,1.60
2011,11,25,00,49,2.30
2011,11,25,00,50,2.80
2011,11,25,00,51,1.50
2011,11,25,00,52,1.20
2011,11,25,00,53,0.10
2011,11,25,00,54,0.00
2011,11,25,00,55,0.00
2011,11,25,00,56,5.80
2011,11,25,00,57,4.70
2011,11,25,00,58,5.40
2011,11,25,00,59,5.60
2011,11,25,01,00,4.10
2011,11,25,01,01,4.50
2011,11,25,01,02,5.30
2011,11,25,01,03,5.10
2011,11,25,01,04,4.40
2011,11,25,01,05,5.10
2011,11,25,01,06,3.70
2011,11,25,01,07,2.80
2011,11,25,01,08,7.60
2011,11,25,01,09,5.60
2011,11,25,01,10,7.10
2011,11,25,01,11,3.80
2011,11,25,01,12,2.20
2011,11,25,01,13,4.10
2011,11,25,01,14,4.20
2011,11,25,01,15,2.70
2011,11,25,01,16,4.00
2011,11,25,01,17,2.70
2011,11,25,01,18,4.40
2011,11,25,01,19,2.10
2011,11,25,01,20,2.70
2011,11,25,01,21,4.10
2011,11,25,01,22,1.10
2011,11,25,01,23,1.20
2011,11,25,01,24,1.90
2011,11,25,01,25,0.50
2011,11,25,01,26,0.10
2011,11,25,01,27,0.50
2011,11,25,01,28,2.30
2011,11,25,01,29,3.50
2011,11,25,01,30,0.20
2011,11,25,01,31,0.90
2011,11,25,01,32,0.20
2011,11,25,01,33,0.00
2011,11,25,01,34,0.00
2011,11,25,01,35,0.40
2011,11,25,01,36,2.20
2011,11,25,01,37,1.60
2011,11,25,01,38,1.80
2011,11,25,01,39,1.40
2011,11,25,01,40,1.20
2011,11,25,01,41,1.20
2011,11,25,01,42,1.00
2011,11,25,01,43,0.20
2011,11,25,01,44,0.50
2011,11,25,01,45,1.10
2011,11,25,01,46,3.10
2011,11,25,01,47,2.10
2011,11,25,01,48,0.20
2011,11,25,01,49,0.00
2011,11,25,01,50,0.40
2011,11,25,01,51,0.60
2011,11,25,01,52,2.60
2011,11,25,01,53,2.90
2011,11,25,01,54,0.40
2011,11,25,01,55,0.00
2011,11,25,01,56,1.30
2011,11,25,01,57,1.60
2011,11,25,01,58,3.00
2011,11,25,01,59,2.10
2011,11,25,02,00,0.80
2011,11,25,02,01,0.50
2011,11,25,02,02,1.10
2011,11,25,02,03,2.00
2011,11,25,02,04,1.90
2011,11,25,02,05,3.70
2011,11,25,02,06,2.40
2011,11,25,02,07,5.90
2011,11,25,02,08,7.70
2011,11,25,02,09,4.10
2011,11,25,02,10,2.10
2011,11,25,02,11,2.00
2011,11,25,02,12,6.10
2011,11,25,02,13,5.50
2011,11,25,02,14,1.60
2011,11,25,02,15,1.90
2011,11,25,02,16,4.70
2011,11,25,02,17,5.40
2011,11,25,02,18,5.30
2011,11,25,02,19,3.50
2011,11,25,02,20,2.80
2011,11,25,02,21,3.20
2011,11,25,02,22,1.50
2011,11,25,02,23,0.60
2011,11,25,02,24,0.00
2011,11,25,02,25,0.10
2011,11,25,02,26,1.50
2011,11,25,02,27,2.70
2011,11,25,02,28,1.50
2011,11,25,02,29,1.50
2011,11,25,02,30,1.10
2011,11,25,02,31,0.00
2011,11,25,02,32,0.00
2011,11,25,02,33,0.00
2011,11,25,02,34,0.00
2011,11,25,02,35,0.00
2011,11,25,02,36,0.00
2011,11,25,02,37,0.90
2011,11,25,02,38,3.00
2011,11,25,02,39,1.20
2011,11,25,02,40,1.40
2011,11,25,02,41,2.30
2011,11,25,02,42,1.30
2011,11,25,02,43,1.30
2011,11,25,02,44,2.90
2011,11,25,02,45,4.00
2011,11,25,02,46,4.10
2011,11,25,02,47,1.20
2011,11,25,02,48,0.00
2011,11,25,02,49,1.20
2011,11,25,02,50,0.30
2011,11,25,02,51,2.70
2011,11,25,02,52,1.90
2011,11,25,02,53,1.60
2011,11,25,02,54,3.60
2011,11,25,02,55,3.40
2011,11,25,02,56,2.10
2011,11,25,02,57,1.60
2011,11,25,02,58,1.10
2011,11,25,02,59,0.00
2011,11,25,03,00,0.50
2011,11,25,03,01,1.00
2011,11,25,03,02,2.30
2011,11,25,03,06,0.20
2011,11,25,03,07,3.20
2011,11,25,03,08,0.90
2011,11,25,03,09,0.20
2011,11,25,03,10,3.80
2011,11,25,03,11,4.70
2011,11,25,03,12,3.20
2011,11,25,03,13,1.60
2011,11,25,03,14,0.80
2011,11,25,03,15,1.00
2011,11,25,03,16,1.70
2011,11,25,03,17,0.10
2011,11,25,03,18,0.00
2011,11,25,03,19,0.20
2011,11,25,03,20,2.20
2011,11,25,03,21,2.80
2011,11,25,03,22,4.10
2011,11,25,03,23,2.80
2011,11,25,03,24,3.80
2011,11,25,03,25,6.70
2011,11,25,03,26,3.80
2011,11,25,03,27,2.20
2011,11,25,03,28,3.20
2011,11,25,03,29,4.40
2011,11,25,03,30,5.50
2011,11,25,03,31,7.40
2011,11,25,03,32,7.20
2011,11,25,03,33,5.90
2011,11,25,03,34,2.90
2011,11,25,03,35,1.20
2011,11,25,03,36,2.50
2011,11,25,03,37,2.20
2011,11,25,03,38,1.90
2011,11,25,03,39,1.20
2011,11,25,03,40,2.30
2011,11,25,03,41,4.50
2011,11,25,03,42,4.70
2011,11,25,03,43,4.00
2011,11,25,03,44,6.40
2011,11,25,03,45,3.20
2011,11,25,03,46,2.30
2011,11,25,03,47,1.90
2011,11,25,03,48,0.60
2011,11,25,03,49,2.20
2011,11,25,03,50,4.20
2011,11,25,03,51,6.50
2011,11,25,03,52,7.10
2011,11,25,03,53,8.50
2011,11,25,03,54,7.70
2011,11,25,03,55,7.00
2011,11,25,03,56,7.90
2011,11,25,03,57,7.40
2011,11,25,03,58,6.80
2011,11,25,03,59,5.00
2011,11,25,04,00,4.00
2011,11,25,04,01,4.20
2011,11,25,04,02,0.90
2011,11,25,04,03,2.10
2011,11,25,04,04,1.20
2011,11,25,04,05,2.50
2011,11,25,04,06,7.10
2011,11,25,04,07,6.30
2011,11,25,04,08,5.60
2011,11,25,04,09,4.50
2011,11,25,04,10,2.80
2011,11,25,04,11,1.50
2011,11,25,04,12,2.60
2011,11,25,04,13,2.90
2011,11,25,04,14,2.10
2011,11,25,04,15,4.50
2011,11,25,04,16,5.70
2011,11,25,04,17,5.10
2011,11,25,04,18,3.00
2011,11,25,04,19,0.90
2011,11,25,04,20,0.30
2011,11,25,04,21,2.30
2011,11,25,04,22,2.20
2011,11,25,04,23,1.40
2011,11,25,04,24,0.10
2011,11,25,04,25,0.00
2011,11,25,04,26,0.00
2011,11,25,04,27,0.00
2011,11,25,04,28,0.00
2011,11,25,04,29,0.70
2011,11,25,04,30,1.80
2011,11,25,04,31,1.70
2011,11,25,04,32,2.40
2011,11,25,04,33,3.40
2011,11,25,04,34,2.50
2011,11,25,04,35,1.50
2011,11,25,04,36,1.70
2011,11,25,04,37,0.40
2011,11,25,04,38,0.70
2011,11,25,04,39,0.70
2011,11,25,04,40,1.60
2011,11,25,04,41,2.30
2011,11,25,04,42,3.30
2011,11,25,04,43,3.10
2011,11,25,04,44,3.10
2011,11,25,04,45,5.40
2011,11,25,04,46,5.10
2011,11,25,04,47,5.70
2011,11,25,04,48,5.80
2011,11,25,04,49,5.50
2011,11,25,04,50,4.60
2011,11,25,04,51,5.60
2011,11,25,04,52,6.60
2011,11,25,04,53,7.30
2011,11,25,04,54,7.30
2011,11,25,04,55,6.70
2011,11,25,04,56,5.10
2011,11,25,04,57,3.80
2011,11,25,04,58,3.50
2011,11,25,04,59,4.10
2011,11,25,05,00,3.80
2011,11,25,05,01,2.70
2011,11,25,05,02,2.00
2011,11,25,05,03,2.40
2011,11,25,05,04,3.00
2011,11,25,05,05,3.60
2011,11,25,05,06,6.00
2011,11,25,05,07,7.10
2011,11,25,05,08,6.80
2011,11,25,05,09,7.30
2011,11,25,05,10,6.10
2011,11,25,05,11,6.80
2011,11,25,05,12,4.70
2011,11,25,05,13,7.30
2011,11,25,05,14,7.40
2011,11,25,05,15,7.00
2011,11,25,05,16,6.20
2011,11,25,05,17,4.30
2011,11,25,05,18,0.70
2011,11,25,05,19,3.20
2011,11,25,05,20,5.60
2011,11,25,05,21,3.80
2011,11,25,05,22,3.40
2011,11,25,05,23,3.60
2011,11,25,05,24,3.40
2011,11,25,05,25,3.90
2011,11,25,05,26,4.00
2011,11,25,05,27,5.40
2011,11,25,05,28,6.10
2011,11,25,05,29,2.90
2011,11,25,05,30,3.10
2011,11,25,05,31,3.90
2011,11,25,05,32,5.80
2011,11,25,05,33,4.90
2011,11,25,05,34,6.00
2011,11,25,05,35,1.60
2011,11,25,05,36,3.90
2011,11,25,05,37,3.70
2011,11,25,05,38,1.80
2011,11,25,05,39,1.60
2011,11,25,05,40,0.50
2011,11,25,05,41,0.40
2011,11,25,05,42,3.60
2011,11,25,05,43,6.80
2011,11,25,05,44,6.80
2011,11,25,05,45,7.30
2011,11,25,05,46,6.10
2011,11,25,05,47,2.40
2011,11,25,05,48,0.40
2011,11,25,05,49,0.00
2011,11,25,05,50,0.00
2011,11,25,05,51,1.40
2011,11,25,05,52,1.10
2011,11,25,05,53,2.40
2011,11,25,05,54,2.80
2011,11,25,05,55,3.00
2011,11,25,05,56,6.40
2011,11,25,05,57,5.60
2011,11,25,05,58,7.00
2011,11,25,05,59,7.30
2011,11,25,06,00,6.00
2011,11,25,06,01,6.60
2011,11,25,06,02,6.40
2011,11,25,06,03,4.40
2011,11,25,06,04,1.80
2011,11,25,06,05,0.60
2011,11,25,06,06,3.90
2011,11,25,06,07,4.30
2011,11,25,06,08,4.00
2011,11,25,06,09,3.20
2011,11,25,06,10,1.90
2011,11,25,06,11,0.60
2011,11,25,06,12,0.80
2011,11,25,06,13,1.80
2011,11,25,06,14,0.20
2011,11,25,06,15,0.00
2011,11,25,06,16,0.70
2011,11,25,06,17,1.00
2011,11,25,06,18,0.40
2011,11,25,06,19,0.00
2011,11,25,06,20,1.40
2011,11,25,06,21,1.50
2011,11,25,06,22,1.20
2011,11,25,06,23,0.50
2011,11,25,06,24,0.20
2011,11,25,06,25,0.90
2011,11,25,06,26,0.90
2011,11,25,06,27,0.00
2011,11,25,06,28,0.20
2011,11,25,06,29,0.50
2011,11,25,06,30,0.00
2011,11,25,06,31,3.50
2011,11,25,06,32,5.10
2011,11,25,06,33,3.30
2011,11,25,06,34,2.60
2011,11,25,06,35,1.50
2011,11,25,06,36,1.60
2011,11,25,06,37,5.40
2011,11,25,06,38,5.40
2011,11,25,06,39,4.90
2011,11,25,06,40,1.40
2011,11,25,06,41,0.80
2011,11,25,06,42,0.00
2011,11,25,06,43,0.10
2011,11,25,06,44,0.00
2011,11,25,06,45,0.00
2011,11,25,06,46,0.90
2011,11,25,06,47,3.40
2011,11,25,06,48,2.90
2011,11,25,06,49,1.40
2011,11,25,06,50,2.40
2011,11,25,06,51,0.40
2011,11,25,06,52,0.10
2011,11,25,06,53,0.50
2011,11,25,06,54,2.20
2011,11,25,06,55,1.40
2011,11,25,06,56,0.20
2011,11,25,06,57,0.00
2011,11,25,06,58,0.00
2011,11,25,06,59,0.00
2011,11,25,07,00,0.00
2011,11,25,07,01,0.00
2011,11,25,07,02,0.00
2011,11,25,07,03,0.10
2011,11,25,07,04,2.40
2011,11,25,07,05,2.40
2011,11,25,07,06,1.80
2011,11,25,07,07,1.90
2011,11,25,07,08,2.30
2011,11,25,07,09,2.00
2011,11,25,07,10,2.10
2011,11,25,07,11,2.40
2011,11,25,07,12,3.90
2011,11,25,07,13,3.30
2011,11,25,07,14,4.00
2011,11,25,07,15,4.40
2011,11,25,07,16,3.20
2011,11,25,07,17,2.70
2011,11,25,07,18,2.30
2011,11,25,07,19,1.20
2011,11,25,07,20,1.10
2011,11,25,07,21,5.20
2011,11,25,07,22,2.60
2011,11,25,07,23,1.30
2011,11,25,07,24,1.40
2011,11,25,07,25,0.70
2011,11,25,07,26,0.00
2011,11,25,07,27,0.00
2011,11,25,07,28,0.00
2011,11,25,07,29,0.00
2011,11,25,07,30,0.00
2011,11,25,07,31,0.10
2011,11,25,07,32,2.50
2011,11,25,07,33,2.90
2011,11,25,07,34,1.40
2011,11,25,07,35,0.20
2011,11,25,07,36,0.40
2011,11,25,07,37,0.00
2011,11,25,07,38,0.00
2011,11,25,07,39,0.00
2011,11,25,07,40,0.00
2011,11,25,07,41,0.00
2011,11,25,07,42,0.00
2011,11,25,07,43,0.00
2011,11,25,07,44,0.00
2011,11,25,07,45,0.00
2011,11,25,07,46,0.00
2011,11,25,07,47,0.00
2011,11,25,07,48,0.00
2011,11,25,07,49,0.00
2011,11,25,07,50,0.00
2011,11,25,07,51,1.00
2011,11,25,07,52,2.80
2011,11,25,07,53,4.10
2011,11,25,07,54,3.00
2011,11,25,07,55,3.40
2011,11,25,07,56,3.90
2011,11,25,07,57,2.70
2011,11,25,07,58,2.50
2011,11,25,07,59,2.00
2011,11,25,08,00,0.00
2011,11,25,08,01,0.00
2011,11,25,08,02,0.00
2011,11,25,08,03,0.00
2011,11,25,08,04,0.00
2011,11,25,08,05,0.80
2011,11,25,08,06,2.60
2011,11,25,08,07,2.60
2011,11,25,08,08,0.20
2011,11,25,08,09,0.00
2011,11,25,08,10,0.00
2011,11,25,08,11,0.20
2011,11,25,08,12,0.30
2011,11,25,08,13,0.50
2011,11,25,08,14,1.30
2011,11,25,08,15,0.50
2011,11,25,08,16,0.10
2011,11,25,08,17,0.80
2011,11,25,08,18,1.80
2011,11,25,08,19,1.50
2011,11,25,08,20,0.00
2011,11,25,08,21,2.20
2011,11,25,08,22,1.50
2011,11,25,08,23,2.80
2011,11,25,08,24,3.20
2011,11,25,08,25,0.30
2011,11,25,08,26,0.10
2011,11,25,08,27,1.00
2011,11,25,08,28,3.60
2011,11,25,08,29,2.20
2011,11,25,08,30,0.90
2011,11,25,08,31,0.10
2011,11,25,08,32,0.70
2011,11,25,08,33,0.50
2011,11,25,08,34,0.00
2011,11,25,08,35,0.80
2011,11,25,08,36,1.00
2011,11,25,08,37,1.30
2011,11,25,08,38,2.90
2011,11,25,08,39,2.80
2011,11,25,08,40,2.30
2011,11,25,08,41,2.80
2011,11,25,08,42,2.20
2011,11,25,08,43,2.40
2011,11,25,08,44,1.50
2011,11,25,08,45,0.80
2011,11,25,08,46,2.30
2011,11,25,08,47,1.00
2011,11,25,08,48,0.00
2011,11,25,08,49,0.00
2011,11,25,08,50,0.00
2011,11,25,08,51,0.00
2011,11,25,08,52,1.20
2011,11,25,08,53,2.80
2011,11,25,08,54,1.90
2011,11,25,08,55,1.00
2011,11,25,08,56,0.00
2011,11,25,08,57,0.00
2011,11,25,08,58,0.40
2011,11,25,08,59,1.40
2011,11,25,09,00,1.50
2011,11,25,09,01,0.70
2011,11,25,09,02,0.90
2011,11,25,09,03,1.80
2011,11,25,09,04,1.80
2011,11,25,09,05,2.80
2011,11,25,09,06,2.90
2011,11,25,09,07,2.50
2011,11,25,09,08,1.30
2011,11,25,09,09,1.40
2011,11,25,09,10,3.40
2011,11,25,09,11,3.10
2011,11,25,09,12,4.30
2011,11,25,09,13,2.60
2011,11,25,09,14,1.00
2011,11,25,09,15,0.10
2011,11,25,09,16,0.00
2011,11,25,09,17,0.20
2011,11,25,09,18,0.00
2011,11,25,09,19,0.00
2011,11,25,09,20,0.20
2011,11,25,09,21,2.10
2011,11,25,09,22,3.70
2011,11,25,09,23,4.40
2011,11,25,09,24,4.10
2011,11,25,09,25,2.70
2011,11,25,09,26,2.30
2011,11,25,09,27,2.10
2011,11,25,09,28,0.30
2011,11,25,09,29,0.30
2011,11,25,09,30,2.30
2011,11,25,09,31,1.70
2011,11,25,09,32,1.20
2011,11,25,09,33,0.70
2011,11,25,09,34,0.00
2011,11,25,09,35,0.00
2011,11,25,09,36,0.00
2011,11,25,09,37,0.20
2011,11,25,09,38,0.30
2011,11,25,09,39,0.00
2011,11,25,09,40,0.00
2011,11,25,09,41,1.70
2011,11,25,09,42,2.10
2011,11,25,09,43,1.90
2011,11,25,09,44,2.40
2011,11,25,09,45,0.40
2011,11,25,09,46,0.20
2011,11,25,09,47,0.90
2011,11,25,09,48,0.30
2011,11,25,09,49,0.00
2011,11,25,09,50,0.50
2011,11,25,09,51,0.10
2011,11,25,09,52,0.00
2011,11,25,09,53,0.00
2011,11,25,09,54,1.00
2011,11,25,09,55,4.10
2011,11,25,09,56,0.50
2011,11,25,09,57,0.00
2011,11,25,09,58,0.00
2011,11,25,09,59,0.00
2011,11,25,10,00,0.50
2011,11,25,10,01,0.00
2011,11,25,10,02,0.00
2011,11,25,10,03,0.00
2011,11,25,10,04,0.00
2011,11,25,10,05,0.00
2011,11,25,10,06,1.20
2011,11,25,10,07,2.80
2011,11,25,10,08,3.10
2011,11,25,10,09,1.80
2011,11,25,10,10,1.50
2011,11,25,10,11,0.40
2011,11,25,10,12,0.20
2011,11,25,10,13,0.40
2011,11,25,10,14,0.00
2011,11,25,10,15,0.00
2011,11,25,10,16,0.00
2011,11,25,10,17,0.50
2011,11,25,10,18,1.20
2011,11,25,10,19,0.00
2011,11,25,10,20,0.00
2011,11,25,10,21,0.00
2011,11,25,10,22,0.00
2011,11,25,10,23,0.60
2011,11,25,10,24,0.30
2011,11,25,10,25,0.00
2011,11,25,10,26,0.10
2011,11,25,10,27,0.60
2011,11,25,10,28,1.40
2011,11,25,10,29,1.70
2011,11,25,10,30,0.50
2011,11,25,10,31,2.10
2011,11,25,10,32,2.40
2011,11,25,10,33,2.70
2011,11,25,10,34,4.40
2011,11,25,10,35,4.40
2011,11,25,10,36,5.30
2011,11,25,10,37,4.20
2011,11,25,10,38,3.70
2011,11,25,10,39,4.20
2011,11,25,10,40,3.00
2011,11,25,10,41,4.70
2011,11,25,10,42,4.20
2011,11,25,10,43,5.10
2011,11,25,10,44,4.70
2011,11,25,10,45,5.00
2011,11,25,10,46,2.60
2011,11,25,10,47,3.40
2011,11,25,10,48,4.10
2011,11,25,10,49,4.60
2011,11,25,10,50,5.10
2011,11,25,10,51,3.70
2011,11,25,10,52,4.80
2011,11,25,10,53,5.30
2011,11,25,10,54,4.80
2011,11,25,10,55,4.20
2011,11,25,10,56,4.30
2011,11,25,10,57,3.00
2011,11,25,10,58,2.30
2011,11,25,10,59,2.80
2011,11,25,11,00,3.10
2011,11,25,11,01,2.90
2011,11,25,11,02,2.70
2011,11,25,11,03,3.10
2011,11,25,11,04,2.60
2011,11,25,11,05,2.60
2011,11,25,11,06,2.10
2011,11,25,11,07,1.00
2011,11,25,11,08,2.10
2011,11,25,11,09,2.00
2011,11,25,11,10,4.50
2011,11,25,11,11,4.60
2011,11,25,11,12,1.70
2011,11,25,11,13,1.70
2011,11,25,11,14,4.10
2011,11,25,11,15,3.10
2011,11,25,11,16,3.90
2011,11,25,11,17,4.80
2011,11,25,11,18,4.10
2011,11,25,11,19,3.00
2011,11,25,11,20,3.30
2011,11,25,11,21,1.90
2011,11,25,11,22,3.10
2011,11,25,11,23,4.10
2011,11,25,11,24,1.80
2011,11,25,11,25,2.70
2011,11,25,11,26,0.10
2011,11,25,11,27,2.50
2011,11,25,11,28,1.60
2011,11,25,11,29,0.60
2011,11,25,11,30,3.30
2011,11,25,11,31,2.40
2011,11,25,11,32,3.30
2011,11,25,11,33,2.90
2011,11,25,11,34,1.70
2011,11,25,11,35,0.70
2011,11,25,11,36,0.00
2011,11,25,11,37,0.00
2011,11,25,11,38,0.00
2011,11,25,11,39,0.00
2011,11,25,11,40,0.00
2011,11,25,11,41,0.10
2011,11,25,11,42,0.10
2011,11,25,11,43,0.00
2011,11,25,11,44,0.20
2011,11,25,11,45,1.50
2011,11,25,11,46,0.40
2011,11,25,11,47,1.00
2011,11,25,11,48,1.80
2011,11,25,11,49,0.50
2011,11,25,11,50,2.10
2011,11,25,11,51,0.10
2011,11,25,11,52,0.00
2011,11,25,11,53,0.80
2011,11,25,11,54,0.10
2011,11,25,11,55,0.00
2011,11,25,11,56,2.10
2011,11,25,11,57,1.10
2011,11,25,11,58,0.10
2011,11,25,11,59,0.20
2011,11,25,12,00,3.10
2011,11,25,12,01,3.30
2011,11,25,12,02,2.20
2011,11,25,12,03,0.40
2011,11,25,12,04,0.10
2011,11,25,12,05,0.20
2011,11,25,12,06,2.40
2011,11,25,12,07,1.20
2011,11,25,12,08,1.80
2011,11,25,12,09,0.90
2011,11,25,12,10,2.40
2011,11,25,12,11,1.20
2011,11,25,12,12,1.00
2011,11,25,12,13,2.00
2011,11,25,12,14,2.30
2011,11,25,12,15,2.40
2011,11,25,12,16,1.40
2011,11,25,12,17,0.50
2011,11,25,12,18,1.50
2011,11,25,12,19,1.80
2011,11,25,12,20,2.50
2011,11,25,12,21,1.80
2011,11,25,12,22,0.30
2011,11,25,12,23,1.40
2011,11,25,12,24,1.60
2011,11,25,12,25,2.00
2011,11,25,12,26,1.10
2011,11,25,12,27,1.40
2011,11,25,12,28,1.60
2011,11,25,12,29,0.60
2011,11,25,12,30,1.50
2011,11,25,12,31,2.30
2011,11,25,12,32,2.70
2011,11,25,12,33,1.20
2011,11,25,12,34,0.80
2011,11,25,12,35,2.50
2011,11,25,12,36,0.50
2011,11,25,12,37,0.00
2011,11,25,12,38,0.00
2011,11,25,12,39,0.00
2011,11,25,12,40,0.20
2011,11,25,12,41,2.40
2011,11,25,12,42,2.80
2011,11,25,12,43,0.80
2011,11,25,12,44,1.40
2011,11,25,12,45,0.80
2011,11,25,12,46,1.00
2011,11,25,12,47,2.10
2011,11,25,12,48,0.80
2011,11,25,12,49,0.60
2011,11,25,12,50,1.30
2011,11,25,12,51,2.80
2011,11,25,12,52,1.90
2011,11,25,12,53,2.10
2011,11,25,12,54,1.80
2011,11,25,12,55,3.20
2011,11,25,12,56,2.90
2011,11,25,12,57,1.50
2011,11,25,12,58,0.10
2011,11,25,12,59,0.00
2011,11,25,13,00,1.20
2011,11,25,13,01,0.00
2011,11,25,13,02,0.90
2011,11,25,13,03,1.00
2011,11,25,13,04,0.10
2011,11,25,13,05,0.20
2011,11,25,13,06,1.00
2011,11,25,13,07,0.00
2011,11,25,13,08,0.00
2011,11,25,13,09,0.00
2011,11,25,13,10,0.00
2011,11,25,13,11,0.20
2011,11,25,13,12,0.20
2011,11,25,13,13,0.00
2011,11,25,13,14,0.00
2011,11,25,13,15,0.00
2011,11,25,13,16,0.00
2011,11,25,13,17,0.00
2011,11,25,13,18,0.10
2011,11,25,13,19,1.50
2011,11,25,13,20,0.40
2011,11,25,13,21,0.10
2011,11,25,13,22,2.10
2011,11,25,13,23,2.20
2011,11,25,13,24,2.40
2011,11,25,13,25,2.90
2011,11,25,13,26,2.10
2011,11,25,13,27,2.40
2011,11,25,13,28,2.40
2011,11,25,13,29,1.20
2011,11,25,13,30,0.00
2011,11,25,13,31,0.10
2011,11,25,13,32,1.00
2011,11,25,13,33,0.60
2011,11,25,13,34,1.70
2011,11,25,13,35,1.90
2011,11,25,13,36,0.30
2011,11,25,13,37,0.00
2011,11,25,13,38,0.50
2011,11,25,13,39,0.50
2011,11,25,13,40,0.40
2011,11,25,13,41,0.10
2011,11,25,13,42,0.00
2011,11,25,13,43,0.00
2011,11,25,13,44,0.00
2011,11,25,13,45,0.20
2011,11,25,13,46,0.20
2011,11,25,13,47,0.00
2011,11,25,13,48,0.00
2011,11,25,13,49,0.00
2011,11,25,13,50,0.00
2011,11,25,13,51,0.20
2011,11,25,13,52,0.70
2011,11,25,13,53,0.30
2011,11,25,13,54,0.00
2011,11,25,13,55,0.10
2011,11,25,13,56,0.10
2011,11,25,13,57,0.00
2011,11,25,13,58,0.30
2011,11,25,13,59,0.40
2011,11,25,14,00,0.00
2011,11,25,14,01,0.00
2011,11,25,14,02,0.00
2011,11,25,14,03,0.00
2011,11,25,14,04,0.10
2011,11,25,14,05,0.00
2011,11,25,14,06,1.00
2011,11,25,14,07,1.10
2011,11,25,14,08,1.10
2011,11,25,14,09,2.80
2011,11,25,14,10,1.60
2011,11,25,14,11,3.00
2011,11,25,14,12,3.10
2011,11,25,14,13,1.90
2011,11,25,14,14,1.70
2011,11,25,14,15,1.80
2011,11,25,14,16,1.20
2011,11,25,14,17,0.00
2011,11,25,14,18,0.30
2011,11,25,14,19,0.10
2011,11,25,14,20,0.00
2011,11,25,14,21,0.00
2011,11,25,14,22,0.00
2011,11,25,14,23,0.00
2011,11,25,14,24,0.50
2011,11,25,14,25,0.00
2011,11,25,14,26,0.00
2011,11,25,14,27,0.00
2011,11,25,14,28,0.00
2011,11,25,14,29,0.00
2011,11,25,14,30,0.00
2011,11,25,14,31,0.00
2011,11,25,14,32,0.00
2011,11,25,14,33,0.00
2011,11,25,14,34,0.00
2011,11,25,14,35,0.00
2011,11,25,14,36,0.00
2011,11,25,14,37,0.00
2011,11,25,14,38,0.00
2011,11,25,14,39,0.00
2011,11,25,14,40,0.00
2011,11,25,14,41,0.00
2011,11,25,14,42,0.10
2011,11,25,14,43,0.00
2011,11,25,14,44,0.00
2011,11,25,14,45,0.00
2011,11,25,14,46,0.40
2011,11,25,14,47,0.00
2011,11,25,14,48,0.00
2011,11,25,14,49,0.10
2011,11,25,14,50,0.00
2011,11,25,14,51,0.20
2011,11,25,14,52,0.00
2011,11,25,14,53,0.00
2011,11,25,14,54,0.20
2011,11,25,14,55,0.00
2011,11,25,14,56,0.00
2011,11,25,14,57,0.00
2011,11,25,14,58,0.00
2011,11,25,14,59,0.00
2011,11,25,15,00,0.00
2011,11,25,15,01,0.00
2011,11,25,15,02,0.00
2011,11,25,15,03,0.00
2011,11,25,15,04,0.00
2011,11,25,15,05,0.00
2011,11,25,15,06,0.00
2011,11,25,15,07,0.00
2011,11,25,15,08,0.00
2011,11,25,15,09,0.10
2011,11,25,15,10,0.00
2011,11,25,15,11,0.00
2011,11,25,15,12,0.00
2011,11,25,15,13,0.00
2011,11,25,15,14,0.00
2011,11,25,15,15,0.00
2011,11,25,15,16,0.00
2011,11,25,15,17,0.00
2011,11,25,15,18,0.00
2011,11,25,15,19,0.00
2011,11,25,15,20,0.00
2011,11,25,15,21,0.00
2011,11,25,15,22,0.00
2011,11,25,15,23,0.00
2011,11,25,15,24,0.00
2011,11,25,15,25,0.00
2011,11,25,15,26,0.00
2011,11,25,15,27,0.00
2011,11,25,15,28,0.00
2011,11,25,15,29,0.00
2011,11,25,15,30,0.00
2011,11,25,15,31,0.00
2011,11,25,15,32,0.00
2011,11,25,15,33,0.00
2011,11,25,15,34,0.00
2011,11,25,15,35,0.00
2011,11,25,15,36,0.10
2011,11,25,15,37,0.10
2011,11,25,15,38,0.00
2011,11,25,15,39,0.60
2011,11,25,15,40,0.20
2011,11,25,15,41,0.00
2011,11,25,15,42,0.10
2011,11,25,15,43,0.00
2011,11,25,15,44,0.90
2011,11,25,15,45,1.60
2011,11,25,15,46,1.50
2011,11,25,15,47,1.00
2011,11,25,15,48,1.20
2011,11,25,15,49,1.80
2011,11,25,15,50,0.60
2011,11,25,15,51,0.30
2011,11,25,15,52,0.00
2011,11,25,15,53,0.00
2011,11,25,15,54,0.00
2011,11,25,15,55,0.00
2011,11,25,15,56,0.00
2011,11,25,15,57,0.00
2011,11,25,15,58,0.00
2011,11,25,15,59,0.00
2011,11,25,16,00,0.00
2011,11,25,16,01,0.10
2011,11,25,16,02,0.00
2011,11,25,16,03,0.00
2011,11,25,16,04,0.00
2011,11,25,16,05,0.00
2011,11,25,16,06,0.00
2011,11,25,16,07,0.00
2011,11,25,16,08,0.00
2011,11,25,16,09,0.00
2011,11,25,16,10,0.00
2011,11,25,16,11,0.00
2011,11,25,16,12,0.00
2011,11,25,16,13,0.00
2011,11,25,16,14,0.00
2011,11,25,16,15,0.00
2011,11,25,16,16,0.00
2011,11,25,16,17,0.00
2011,11,25,16,18,0.00
2011,11,25,16,19,0.00
2011,11,25,16,20,0.00
2011,11,25,16,21,0.00
2011,11,25,16,22,0.00
2011,11,25,16,23,0.00
2011,11,25,16,24,0.00
2011,11,25,16,25,0.00
2011,11,25,16,26,0.00
2011,11,25,16,27,0.40
2011,11,25,16,28,1.20
2011,11,25,16,29,1.20
2011,11,25,16,30,0.10
2011,11,25,16,31,0.00
2011,11,25,16,32,0.00
2011,11,25,16,33,0.10
2011,11,25,16,34,0.10
2011,11,25,16,35,0.40
2011,11,25,16,36,0.00
2011,11,25,16,37,0.00
2011,11,25,16,38,0.00
2011,11,25,16,39,0.00
2011,11,25,16,40,0.00
2011,11,25,16,41,0.00
2011,11,25,16,42,0.40
2011,11,25,16,43,2.00
2011,11,25,16,44,2.70
2011,11,25,16,45,2.00
2011,11,25,16,46,1.90
2011,11,25,16,47,0.50
2011,11,25,16,48,0.50
2011,11,25,16,49,1.70
2011,11,25,16,50,0.80
2011,11,25,16,51,0.00
2011,11,25,16,52,0.00
2011,11,25,16,53,0.00
2011,11,25,16,54,0.00
2011,11,25,16,55,0.00
2011,11,25,16,56,0.00
2011,11,25,16,57,0.20
2011,11,25,16,58,0.60
2011,11,25,16,59,0.70
2011,11,25,17,00,0.80
2011,11,25,17,01,0.70
2011,11,25,17,02,0.00
2011,11,25,17,03,0.00
2011,11,25,17,04,0.00
2011,11,25,17,05,0.20
2011,11,25,17,06,1.60
2011,11,25,17,07,0.40
2011,11,25,17,08,0.00
2011,11,25,17,09,0.00
2011,11,25,17,10,0.00
2011,11,25,17,11,0.00
2011,11,25,17,12,0.00
2011,11,25,17,13,1.20
2011,11,25,17,14,2.60
2011,11,25,17,15,3.50
2011,11,25,17,16,3.70
2011,11,25,17,17,2.40
2011,11,25,17,18,0.00
2011,11,25,17,19,0.00
2011,11,25,17,20,0.00
2011,11,25,17,21,0.00
2011,11,25,17,22,1.10
2011,11,25,17,23,1.80
2011,11,25,17,24,1.20
2011,11,25,17,25,0.10
2011,11,25,17,26,1.20
2011,11,25,17,27,2.80
2011,11,25,17,28,2.60
2011,11,25,17,29,0.20
2011,11,25,17,30,0.00
2011,11,25,17,31,0.00
2011,11,25,17,32,0.40
2011,11,25,17,33,1.80
2011,11,25,17,34,3.30
2011,11,25,17,35,2.10
2011,11,25,17,36,1.50
2011,11,25,17,37,0.10
2011,11,25,17,38,0.80
2011,11,25,17,39,3.10
2011,11,25,17,40,3.20
2011,11,25,17,41,2.10
2011,11,25,17,42,1.40
2011,11,25,17,43,2.50
2011,11,25,17,44,3.70
2011,11,25,17,45,5.30
2011,11,25,17,46,6.10
2011,11,25,17,47,3.30
2011,11,25,17,48,2.60
2011,11,25,17,49,1.30
2011,11,25,17,50,0.10
2011,11,25,17,51,0.40
2011,11,25,17,52,1.70
2011,11,25,17,53,1.80
2011,11,25,17,54,3.20
2011,11,25,17,55,3.10
2011,11,25,17,56,4.40
2011,11,25,17,57,5.30
2011,11,25,17,58,4.10
2011,11,25,17,59,2.30
2011,11,25,18,00,2.00
2011,11,25,18,01,2.80
2011,11,25,18,02,2.90
2011,11,25,18,03,1.50
2011,11,25,18,04,0.90
2011,11,25,18,05,0.10
2011,11,25,18,06,0.70
2011,11,25,18,07,0.00
2011,11,25,18,08,0.00